Flag for Venezuela Weather past 2 weeks in Valencia, Venezuela

Now
81 °F

Passing clouds.


Feels Like: 82 °F
Forecast: 68 / 88 °F
Wind: 10 mph from Southeast

Location: Valencia Airport

Current Time: Jun 30, 2015 at 1:55:43 AM

Latest Report: Jun 29, 2015 at 10:30 PM


Visibility: N/A

Pressure: 30.04 "Hg

Humidity: 58%

Dew point: 64 °F

Location of ValenciaLocation

Historic Weather in Valencia — Graph

°F

Valencia temperature yesterday

Maximum temperature yesterday: 93 °F (at 2:30 PM)
Minimum temperature yesterday: 77 °F (at 1:30 AM)
Average temperature yesterday: 84 °F

Past Weeks' High & Low Weather Summary

 TemperatureHumidityPressure
High95 °F (Jun 21, 3:30 PM)94% (Jun 23, 5:30 AM)30.09 "Hg (Jun 23, 5:30 AM)
Low73 °F (Jun 23, 5:30 AM)38% (Jun 29, 4:30 PM)29.86 "Hg (Jun 17, 3:30 PM)
Average83 °F66%30.01 "Hg
* Reported Jun 14 10:30 PM — Jun 29 10:30 PM, Valencia, Weather by CustomWeather, © 2015

Note: Actual official high and low records may vary slightly from our data, if they occured in-between our weather recording intervals... More about our weather records

Advertising

Valencia weather history for previous 24 hours

 ConditionsComfort  
Time TempWeatherWind HumidityBarometerVisibility
10:30 PM
Mon, Jun 29
81 °FPassing clouds.10 mph58%30.04 "HgN/A
9:30 PM81 °FPassing clouds.10 mph54%30.01 "HgN/A
8:30 PM82 °FPassing clouds.6 mph51%29.98 "HgN/A
7:30 PM84 °FPassing clouds.7 mph43%29.98 "HgN/A
6:30 PM86 °FPassing clouds.7 mph43%29.95 "HgN/A
5:30 PM88 °FScattered clouds.10 mph43%29.92 "HgN/A
4:30 PM91 °FPassing clouds.8 mph38%29.92 "HgN/A
3:30 PM91 °FPassing clouds.10 mph41%29.95 "HgN/A
2:30 PM93 °FPassing clouds.7 mph39%29.98 "HgN/A
1:30 PM91 °FPassing clouds.7 mph44%29.98 "HgN/A
12:30 PM90 °FPassing clouds.5 mph46%30.04 "HgN/A
11:30 AM88 °FPassing clouds.7 mph49%30.07 "HgN/A
10:30 AM86 °FPartly sunny.12 mph55%30.07 "HgN/A
9:30 AM84 °FBroken clouds.10 mph58%30.07 "HgN/A
8:30 AM82 °FScattered clouds.8 mph55%30.07 "HgN/A
7:30 AM81 °FScattered clouds.3 mph74%30.07 "HgN/A
6:30 AM77 °FScattered clouds.7 mph79%30.04 "HgN/A
5:30 AM77 °FScattered clouds.2 mph83%30.04 "HgN/A
4:30 AM77 °FPassing clouds.No wind79%30.04 "HgN/A
1:30 AM77 °FPassing clouds.No wind89%30.07 "HgN/A
Weather by CustomWeather, © 2015

See weather overviewHow to use our weather pages